| time (UTC) | temp F | wind direction | speed knots | gust knots | rain 1hr in | rain 24hr in | rain mn in | humidity % | barometer mb |
| 20260507203004 | 53 | 252 | 0.0 | 0.0 | 0.00 | 0.00 | 0.00 | 74 | 1014.3 |
| 20260507202504 | 53 | 252 | 0.0 | 0.0 | 0.00 | 0.00 | 0.00 | 73 | 1014.3 |
| 20260507201504 | 53 | 252 | 0.0 | 0.0 | 0.00 | 0.00 | 0.00 | 73 | 1014.2 |
| 20260507201003 | 54 | 252 | 0.0 | 0.0 | 0.00 | 0.00 | 0.00 | 73 | 1014.1 |
| 20260507200504 | 54 | 252 | 0.0 | 0.9 | 0.00 | 0.00 | 0.00 | 72 | 1014.1 |
| 20260507200003 | 54 | 252 | 0.0 | 1.7 | 0.00 | 0.00 | 0.00 | 72 | 1014.1 |
| 20260507195503 | 54 | 252 | 0.0 | 0.9 | 0.00 | 0.00 | 0.00 | 71 | 1014.1 |
| 20260507195004 | 54 | 252 | 0.9 | 1.7 | 0.00 | 0.00 | 0.00 | 71 | 1014.0 |
| 20260507194504 | 54 | 252 | 0.9 | 2.6 | 0.00 | 0.00 | 0.00 | 71 | 1014.0 |
| 20260507194004 | 54 | 252 | 0.9 | 2.6 | 0.00 | 0.00 | 0.00 | 71 | 1014.0 |
| 20260507193504 | 54 | 252 | 1.7 | 2.6 | 0.00 | 0.00 | 0.00 | 70 | 1014.0 |
| 20260507193004 | 55 | 251 | 1.7 | 2.6 | 0.00 | 0.00 | 0.00 | 71 | 1013.9 |
| 20260507192503 | 55 | 250 | 0.9 | 2.6 | 0.00 | 0.00 | 0.00 | 71 | 1013.9 |
| 20260507192004 | 55 | 250 | 0.9 | 2.6 | 0.00 | 0.00 | 0.00 | 71 | 1013.9 |
| 20260507191503 | 55 | 250 | 0.9 | 2.6 | 0.00 | 0.00 | 0.00 | 71 | 1013.9 |
| 20260507191004 | 55 | 250 | 2.6 | 4.3 | 0.00 | 0.00 | 0.00 | 70 | 1013.9 |
| 20260507190504 | 55 | 245 | 0.9 | 1.7 | 0.00 | 0.00 | 0.00 | 70 | 1013.9 |
| 20260507190005 | 55 | 245 | 0.9 | 1.7 | 0.00 | 0.00 | 0.00 | 69 | 1013.8 |
| 20260507185503 | 55 | 245 | 0.9 | 1.7 | 0.00 | 0.00 | 0.00 | 69 | 1013.8 |
| 20260507184003 | 56 | 245 | 0.9 | 2.6 | 0.00 | 0.00 | 0.00 | 69 | 1013.9 |
| 20260507183503 | 56 | 245 | 1.7 | 2.6 | 0.00 | 0.00 | 0.00 | 68 | 1013.9 |
| 20260507183004 | 56 | 245 | 0.9 | 2.6 | 0.00 | 0.00 | 0.00 | 68 | 1013.8 |
| 20260507182504 | 56 | 252 | 1.7 | 2.6 | 0.00 | 0.00 | 0.00 | 68 | 1013.9 |
| 20260507182004 | 56 | 252 | 1.7 | 4.3 | 0.00 | 0.00 | 0.00 | 68 | 1013.9 |
| 20260507181503 | 57 | 252 | 2.6 | 2.6 | 0.00 | 0.00 | 0.00 | 68 | 1013.8 |
| 20260507181003 | 57 | 248 | 2.6 | 4.3 | 0.00 | 0.00 | 0.00 | 67 | 1013.7 |
| 20260507180504 | 57 | 247 | 1.7 | 2.6 | 0.00 | 0.00 | 0.00 | 67 | 1013.7 |
| 20260507180004 | 57 | 243 | 1.7 | 2.6 | 0.00 | 0.00 | 0.00 | 66 | 1013.7 |
| 20260507175504 | 57 | 246 | 1.7 | 4.3 | 0.00 | 0.00 | 0.00 | 66 | 1013.7 |
| 20260507175003 | 57 | 240 | 1.7 | 4.3 | 0.00 | 0.00 | 0.00 | 66 | 1013.6 |
| 20260507174504 | 57 | 264 | 1.7 | 5.2 | 0.00 | 0.00 | 0.00 | 66 | 1013.7 |
| 20260507173004 | 57 | 270 | 2.6 | 2.6 | 0.00 | 0.00 | 0.00 | 65 | 1013.7 |
| 20260507172503 | 58 | 275 | 2.6 | 5.2 | 0.00 | 0.00 | 0.00 | 66 | 1013.7 |
| 20260507172004 | 58 | 271 | 0.0 | 1.7 | 0.00 | 0.00 | 0.00 | 66 | 1013.6 |
| 20260507171503 | 58 | 271 | 1.7 | 6.1 | 0.00 | 0.00 | 0.00 | 66 | 1013.6 |
| 20260507171005 | 57 | 186 | 2.6 | 5.2 | 0.00 | 0.00 | 0.00 | 66 | 1013.7 |
| 20260507170504 | 57 | 261 | 1.7 | 2.6 | 0.00 | 0.00 | 0.00 | 66 | 1013.7 |
| 20260507170003 | 57 | 265 | 2.6 | 6.1 | 0.00 | 0.00 | 0.00 | 67 | 1013.8 |
| 20260507165504 | 57 | 269 | 1.7 | 5.2 | 0.00 | 0.00 | 0.00 | 67 | 1013.9 |
| 20260507164504 | 57 | 280 | 2.6 | 5.2 | 0.00 | 0.00 | 0.00 | 67 | 1013.8 |
| 20260507164005 | 57 | 270 | 1.7 | 5.2 | 0.00 | 0.00 | 0.00 | 68 | 1013.8 |
| 20260507163504 | 57 | 281 | 3.5 | 5.2 | 0.00 | 0.00 | 0.00 | 68 | 1013.8 |
| 20260507162503 | 56 | 257 | 1.7 | 2.6 | 0.00 | 0.00 | 0.00 | 68 | 1013.7 |
| 20260507162004 | 56 | 264 | 2.6 | 6.1 | 0.00 | 0.00 | 0.00 | 68 | 1013.8 |
| 20260507161503 | 56 | 256 | 2.6 | 5.2 | 0.00 | 0.00 | 0.00 | 68 | 1013.8 |
| 20260507160504 | 56 | 255 | 2.6 | 4.3 | 0.00 | 0.00 | 0.00 | 69 | 1013.8 |
| 20260507155505 | 57 | 249 | 4.3 | 7.8 | 0.00 | 0.00 | 0.00 | 67 | 1013.8 |
| 20260507154503 | 57 | 268 | 4.3 | 8.7 | 0.00 | 0.00 | 0.00 | 66 | 1013.8 |
| 20260507154004 | 57 | 245 | 5.2 | 8.7 | 0.00 | 0.00 | 0.00 | 65 | 1013.8 |
| 20260507153504 | 57 | 200 | 4.3 | 6.1 | 0.00 | 0.00 | 0.00 | 64 | 1013.8 |
| 20260507153004 | 58 | 209 | 4.3 | 10.4 | 0.00 | 0.00 | 0.00 | 62 | 1013.8 |
| 20260507152504 | 58 | 209 | 5.2 | 10.4 | 0.00 | 0.00 | 0.00 | 62 | 1013.9 |
| 20260507152004 | 58 | 193 | 4.3 | 10.4 | 0.00 | 0.00 | 0.00 | 63 | 1013.9 |
| 20260507151504 | 58 | 204 | 5.2 | 8.7 | 0.00 | 0.00 | 0.00 | 61 | 1013.8 |
| 20260507151004 | 58 | 209 | 5.2 | 10.4 | 0.00 | 0.00 | 0.00 | 62 | 1013.8 |
| 20260507150503 | 58 | 173 | 5.2 | 10.4 | 0.00 | 0.00 | 0.00 | 61 | 1013.8 |
| 20260507150005 | 59 | 189 | 4.3 | 10.4 | 0.00 | 0.00 | 0.00 | 62 | 1013.8 |
| 20260507145503 | 59 | 147 | 5.2 | 10.4 | 0.00 | 0.00 | 0.00 | 61 | 1013.8 |
| 20260507145004 | 59 | 136 | 4.3 | 7.8 | 0.00 | 0.00 | 0.00 | 62 | 1013.8 |
| 20260507144503 | 59 | 205 | 3.5 | 8.7 | 0.00 | 0.00 | 0.00 | 63 | 1013.8 |
| 20260507144004 | 59 | 200 | 4.3 | 8.7 | 0.00 | 0.00 | 0.00 | 62 | 1013.8 |
| 20260507143504 | 59 | 205 | 5.2 | 12.2 | 0.00 | 0.00 | 0.00 | 61 | 1013.9 |
| 20260507143004 | 59 | 175 | 4.3 | 7.8 | 0.00 | 0.00 | 0.00 | 62 | 1013.9 |
| 20260507142503 | 59 | 175 | 5.2 | 10.4 | 0.00 | 0.00 | 0.00 | 61 | 1014.0 |
| 20260507141504 | 59 | 185 | 4.3 | 8.7 | 0.00 | 0.00 | 0.00 | 61 | 1014.1 |
| 20260507141004 | 59 | 147 | 4.3 | 8.7 | 0.00 | 0.00 | 0.00 | 63 | 1014.1 |
| 20260507140504 | 59 | 186 | 2.6 | 11.3 | 0.00 | 0.00 | 0.00 | 63 | 1014.1 |
| 20260507135004 | 60 | 182 | 3.5 | 10.4 | 0.00 | 0.00 | 0.00 | 62 | 1014.1 |
| 20260507134503 | 60 | 165 | 4.3 | 10.4 | 0.00 | 0.00 | 0.00 | 60 | 1014.0 |
| 20260507134003 | 60 | 206 | 7.0 | 8.7 | 0.00 | 0.00 | 0.00 | 61 | 1014.1 |
| 20260507133504 | 60 | 189 | 4.3 | 11.3 | 0.00 | 0.00 | 0.00 | 59 | 1014.0 |
| 20260507133004 | 60 | 148 | 6.1 | 11.3 | 0.00 | 0.00 | 0.00 | 59 | 1014.0 |
| 20260507132503 | 60 | 128 | 6.1 | 10.4 | 0.00 | 0.00 | 0.00 | 61 | 1014.0 |
| 20260507131503 | 60 | 127 | 4.3 | 14.8 | 0.00 | 0.00 | 0.00 | 60 | 1014.1 |
| 20260507131004 | 59 | 164 | 5.2 | 10.4 | 0.00 | 0.00 | 0.00 | 62 | 1014.0 |
| 20260507130504 | 59 | 187 | 4.3 | 10.4 | 0.00 | 0.00 | 0.00 | 62 | 1014.1 |
| 20260507130004 | 59 | 184 | 5.2 | 13.0 | 0.00 | 0.00 | 0.00 | 60 | 1014.1 |
| 20260507125504 | 60 | 176 | 6.1 | 13.0 | 0.00 | 0.00 | 0.00 | 61 | 1014.1 |
| 20260507125003 | 60 | 178 | 6.1 | 10.4 | 0.00 | 0.00 | 0.00 | 60 | 1014.1 |
| 20260507124504 | 60 | 201 | 6.1 | 13.0 | 0.00 | 0.00 | 0.00 | 61 | 1014.1 |
| 20260507124004 | 59 | 187 | 1.7 | 5.2 | 0.00 | 0.00 | 0.00 | 64 | 1014.1 |
| 20260507123004 | 59 | 177 | 5.2 | 10.4 | 0.00 | 0.00 | 0.00 | 63 | 1014.2 |
| 20260507122505 | 59 | 193 | 5.2 | 11.3 | 0.00 | 0.00 | 0.00 | 63 | 1014.2 |
| 20260507122004 | 59 | 181 | 5.2 | 10.4 | 0.00 | 0.00 | 0.00 | 62 | 1014.2 |
| 20260507121504 | 59 | 201 | 5.2 | 10.4 | 0.00 | 0.00 | 0.00 | 63 | 1014.2 |
| 20260507121003 | 59 | 178 | 4.3 | 13.9 | 0.00 | 0.00 | 0.00 | 62 | 1014.2 |
| 20260507120504 | 59 | 175 | 4.3 | 10.4 | 0.00 | 0.00 | 0.00 | 62 | 1014.3 |
| 20260507120005 | 60 | 199 | 5.2 | 10.4 | 0.00 | 0.00 | 0.00 | 61 | 1014.3 |
| 20260507115503 | 60 | 122 | 4.3 | 10.4 | 0.00 | 0.00 | 0.00 | 63 | 1014.2 |
| 20260507114004 | 59 | 164 | 4.3 | 7.8 | 0.00 | 0.00 | 0.00 | 62 | 1014.4 |
| 20260507113504 | 59 | 191 | 5.2 | 8.7 | 0.00 | 0.00 | 0.00 | 62 | 1014.4 |
| 20260507112503 | 61 | 182 | 4.3 | 7.8 | 0.00 | 0.00 | 0.00 | 60 | 1014.4 |
| 20260507111504 | 60 | 132 | 7.8 | 12.2 | 0.00 | 0.00 | 0.00 | 64 | 1014.4 |
| 20260507111004 | 60 | 150 | 4.3 | 10.4 | 0.00 | 0.00 | 0.00 | 65 | 1014.5 |
| 20260507110504 | 60 | 169 | 5.2 | 11.3 | 0.00 | 0.00 | 0.00 | 64 | 1014.5 |
| 20260507110003 | 59 | 195 | 4.3 | 10.4 | 0.00 | 0.00 | 0.00 | 65 | 1014.5 |
| 20260507105504 | 59 | 169 | 7.0 | 13.0 | 0.00 | 0.00 | 0.00 | 65 | 1014.6 |
| 20260507105004 | 59 | 179 | 6.1 | 13.9 | 0.00 | 0.00 | 0.00 | 64 | 1014.7 |
| 20260507104504 | 59 | 119 | 4.3 | 8.7 | 0.00 | 0.00 | 0.00 | 66 | 1014.7 |
| 20260507104003 | 59 | 173 | 7.0 | 13.0 | 0.00 | 0.00 | 0.00 | 63 | 1014.8 |
| 20260507103003 | 60 | 150 | 6.1 | 11.3 | 0.00 | 0.00 | 0.00 | 63 | 1014.7 |
| 20260507102504 | 60 | 122 | 4.3 | 8.7 | 0.00 | 0.00 | 0.00 | 63 | 1014.7 |
| 20260507101005 | 61 | 151 | 7.8 | 10.4 | 0.00 | 0.00 | 0.00 | 63 | 1014.7 |
| 20260507100004 | 60 | 141 | 5.2 | 7.8 | 0.00 | 0.00 | 0.00 | 67 | 1014.7 |
| 20260507095004 | 60 | 140 | 6.1 | 10.4 | 0.00 | 0.00 | 0.00 | 66 | 1014.7 |
| 20260507094503 | 59 | 124 | 3.5 | 7.8 | 0.00 | 0.00 | 0.00 | 68 | 1014.7 |
| 20260507094005 | 59 | 139 | 5.2 | 7.8 | 0.00 | 0.00 | 0.00 | 66 | 1014.6 |
| 20260507093003 | 59 | 132 | 7.0 | 12.2 | 0.00 | 0.00 | 0.00 | 66 | 1014.6 |
| 20260507092504 | 59 | 127 | 3.5 | 8.7 | 0.00 | 0.00 | 0.00 | 68 | 1014.6 |
| 20260507092004 | 58 | 123 | 3.5 | 10.4 | 0.00 | 0.00 | 0.00 | 69 | 1014.6 |
| 20260507091503 | 58 | 125 | 4.3 | 10.4 | 0.00 | 0.00 | 0.00 | 68 | 1014.7 |
| 20260507091004 | 58 | 168 | 5.2 | 8.7 | 0.00 | 0.00 | 0.00 | 67 | 1014.7 |
| 20260507090504 | 58 | 122 | 6.1 | 10.4 | 0.00 | 0.00 | 0.00 | 68 | 1014.7 |
| 20260507085504 | 57 | 127 | 4.3 | 8.7 | 0.00 | 0.00 | 0.00 | 70 | 1014.8 |
| 20260507085004 | 57 | 129 | 5.2 | 7.8 | 0.00 | 0.00 | 0.00 | 70 | 1014.7 |
| 20260507084504 | 56 | 140 | 2.6 | 7.0 | 0.00 | 0.00 | 0.00 | 73 | 1014.8 |
| 20260507084003 | 55 | 160 | 2.6 | 7.8 | 0.00 | 0.00 | 0.00 | 70 | 1014.8 |
| 20260507082504 | 53 | 104 | 2.6 | 7.0 | 0.00 | 0.00 | 0.00 | 75 | 1014.8 |
| 20260507081503 | 52 | 103 | 2.6 | 6.1 | 0.00 | 0.00 | 0.00 | 76 | 1014.8 |
| 20260507081004 | 52 | 101 | 2.6 | 7.0 | 0.00 | 0.00 | 0.00 | 76 | 1014.8 |
| 20260507080503 | 52 | 101 | 3.5 | 6.1 | 0.00 | 0.00 | 0.00 | 77 | 1014.8 |
| 20260507080004 | 51 | 89 | 3.5 | 7.0 | 0.00 | 0.00 | 0.00 | 78 | 1014.8 |
| 20260507075504 | 51 | 70 | 4.3 | 7.0 | 0.00 | 0.00 | 0.00 | 78 | 1014.8 |
| 20260507075004 | 51 | 105 | 3.5 | 5.2 | 0.00 | 0.00 | 0.00 | 78 | 1014.8 |
| 20260507074003 | 50 | 90 | 1.7 | 7.0 | 0.00 | 0.00 | 0.00 | 79 | 1014.9 |
| 20260507073503 | 50 | 99 | 2.6 | 6.1 | 0.00 | 0.00 | 0.00 | 80 | 1014.8 |
| 20260507073004 | 49 | 90 | 2.6 | 4.3 | 0.00 | 0.00 | 0.00 | 80 | 1014.8 |
| 20260507072503 | 49 | 75 | 1.7 | 5.2 | 0.00 | 0.00 | 0.00 | 80 | 1014.8 |
| 20260507071503 | 49 | 104 | 5.2 | 7.8 | 0.00 | 0.00 | 0.00 | 80 | 1014.8 |
| 20260507071003 | 49 | 101 | 5.2 | 10.4 | 0.00 | 0.00 | 0.00 | 80 | 1014.7 |
| 20260507070504 | 48 | 88 | 4.3 | 7.8 | 0.00 | 0.00 | 0.00 | 80 | 1014.8 |
| 20260507070009 | 48 | 96 | 3.5 | 6.1 | 0.00 | 0.00 | 0.00 | 80 | 1014.7 |
| 20260507065504 | 48 | 89 | 4.3 | 7.8 | 0.00 | 0.00 | 0.00 | 80 | 1014.7 |
| 20260507065004 | 48 | 94 | 4.3 | 7.8 | 0.00 | 0.00 | 0.00 | 81 | 1014.6 |
| 20260507064503 | 48 | 101 | 0.9 | 6.1 | 0.00 | 0.00 | 0.00 | 81 | 1014.6 |
| 20260507063503 | 48 | 93 | 1.7 | 5.2 | 0.00 | 0.00 | 0.00 | 81 | 1014.6 |
| 20260507063004 | 47 | 107 | 1.7 | 2.6 | 0.00 | 0.00 | 0.00 | 81 | 1014.6 |
| 20260507062503 | 47 | 115 | 1.7 | 2.6 | 0.00 | 0.00 | 0.00 | 81 | 1014.5 |
| 20260507062003 | 47 | 112 | 1.7 | 2.6 | 0.00 | 0.00 | 0.00 | 82 | 1014.5 |
| 20260507061004 | 47 | 93 | 0.9 | 1.7 | 0.00 | 0.00 | 0.00 | 82 | 1014.4 |
| 20260507055503 | 47 | 88 | 0.9 | 2.6 | 0.00 | 0.00 | 0.00 | 81 | 1014.4 |
| 20260507054504 | 47 | 89 | 1.7 | 2.6 | 0.00 | 0.00 | 0.00 | 81 | 1014.4 |
| 20260507052504 | 47 | 93 | 1.7 | 5.2 | 0.00 | 0.00 | 0.00 | 81 | 1014.2 |
| 20260507052003 | 47 | 94 | 1.7 | 2.6 | 0.00 | 0.00 | 0.00 | 81 | 1014.2 |
| 20260507051503 | 47 | 82 | 3.5 | 6.1 | 0.00 | 0.00 | 0.00 | 81 | 1014.3 |
| 20260507051003 | 47 | 86 | 1.7 | 6.1 | 0.00 | 0.00 | 0.00 | 81 | 1014.3 |
| 20260507050504 | 47 | 94 | 2.6 | 5.2 | 0.00 | 0.00 | 0.00 | 81 | 1014.3 |
| 20260507050005 | 47 | 59 | 2.6 | 6.1 | 0.00 | 0.00 | 0.00 | 80 | 1014.3 |
| 20260507045503 | 47 | 75 | 1.7 | 5.2 | 0.00 | 0.00 | 0.00 | 80 | 1014.2 |
| 20260507045004 | 47 | 65 | 2.6 | 7.0 | 0.00 | 0.00 | 0.00 | 80 | 1014.2 |
| 20260507044503 | 47 | 94 | 2.6 | 7.0 | 0.00 | 0.00 | 0.00 | 80 | 1014.2 |
| 20260507044003 | 47 | 98 | 2.6 | 6.1 | 0.00 | 0.00 | 0.00 | 80 | 1014.2 |
| 20260507043504 | 47 | 82 | 1.7 | 6.1 | 0.00 | 0.00 | 0.00 | 80 | 1014.1 |
| 20260507043004 | 47 | 92 | 2.6 | 6.1 | 0.00 | 0.00 | 0.00 | 80 | 1014.1 |
| 20260507042504 | 47 | 80 | 1.7 | 7.8 | 0.00 | 0.00 | 0.00 | 80 | 1014.2 |
| 20260507041503 | 47 | 81 | 2.6 | 7.8 | 0.00 | 0.00 | 0.00 | 80 | 1014.2 |
| 20260507041003 | 47 | 91 | 2.6 | 6.1 | 0.00 | 0.00 | 0.00 | 79 | 1014.2 |
| 20260507040504 | 47 | 79 | 3.5 | 6.1 | 0.00 | 0.00 | 0.00 | 79 | 1014.2 |
| 20260507040004 | 47 | 67 | 2.6 | 5.2 | 0.00 | 0.00 | 0.00 | 79 | 1014.2 |
| 20260507035504 | 47 | 94 | 1.7 | 7.0 | 0.00 | 0.00 | 0.00 | 79 | 1014.2 |
| 20260507035004 | 47 | 102 | 2.6 | 7.8 | 0.00 | 0.00 | 0.00 | 79 | 1014.1 |
| 20260507034504 | 47 | 113 | 1.7 | 6.1 | 0.00 | 0.00 | 0.00 | 79 | 1014.0 |
| 20260507034004 | 47 | 86 | 2.6 | 4.3 | 0.00 | 0.00 | 0.00 | 79 | 1014.0 |
| 20260507033503 | 47 | 82 | 3.5 | 7.0 | 0.00 | 0.00 | 0.00 | 79 | 1014.1 |
| 20260507033004 | 48 | 112 | 1.7 | 5.2 | 0.00 | 0.00 | 0.00 | 79 | 1014.2 |
| 20260507032504 | 48 | 115 | 2.6 | 6.1 | 0.00 | 0.00 | 0.00 | 79 | 1014.1 |
| 20260507032004 | 48 | 75 | 2.6 | 6.1 | 0.00 | 0.00 | 0.00 | 79 | 1014.1 |
| 20260507031503 | 48 | 87 | 1.7 | 6.1 | 0.00 | 0.00 | 0.00 | 78 | 1014.1 |
| 20260507031004 | 48 | 80 | 2.6 | 5.2 | 0.00 | 0.00 | 0.00 | 78 | 1014.2 |
| 20260507030503 | 48 | 89 | 1.7 | 2.6 | 0.00 | 0.00 | 0.00 | 78 | 1014.1 |
| 20260507030004 | 48 | 89 | 1.7 | 5.2 | 0.00 | 0.00 | 0.00 | 78 | 1014.2 |
| 20260507025503 | 48 | 94 | 1.7 | 2.6 | 0.00 | 0.00 | 0.00 | 78 | 1014.2 |
| 20260507025004 | 48 | 96 | 2.6 | 7.0 | 0.00 | 0.00 | 0.00 | 78 | 1014.2 |
| 20260507024503 | 48 | 61 | 3.5 | 7.0 | 0.00 | 0.00 | 0.00 | 78 | 1014.2 |
| 20260507024004 | 48 | 97 | 2.6 | 7.0 | 0.00 | 0.00 | 0.00 | 77 | 1014.2 |
| 20260507023503 | 48 | 86 | 1.7 | 5.2 | 0.00 | 0.00 | 0.00 | 77 | 1014.2 |
| 20260507023004 | 48 | 91 | 1.7 | 2.6 | 0.00 | 0.00 | 0.00 | 77 | 1014.2 |
| 20260507022504 | 48 | 95 | 1.7 | 5.2 | 0.00 | 0.00 | 0.00 | 77 | 1014.2 |
| 20260507022004 | 48 | 96 | 0.9 | 5.2 | 0.00 | 0.00 | 0.00 | 77 | 1014.2 |
| 20260507021504 | 48 | 78 | 2.6 | 6.1 | 0.00 | 0.00 | 0.00 | 77 | 1014.2 |
| 20260507021004 | 48 | 95 | 4.3 | 6.1 | 0.00 | 0.00 | 0.00 | 77 | 1014.2 |
| 20260507020503 | 48 | 93 | 2.6 | 7.0 | 0.00 | 0.00 | 0.00 | 77 | 1014.2 |
| 20260507020004 | 48 | 97 | 1.7 | 2.6 | 0.00 | 0.00 | 0.00 | 76 | 1014.2 |
| 20260507015504 | 48 | 94 | 2.6 | 5.2 | 0.00 | 0.00 | 0.00 | 76 | 1014.2 |
| 20260507015004 | 49 | 90 | 2.6 | 6.1 | 0.00 | 0.00 | 0.00 | 76 | 1014.2 |
| 20260507014004 | 49 | 93 | 2.6 | 7.0 | 0.00 | 0.00 | 0.00 | 76 | 1014.2 |
| 20260507013503 | 49 | 96 | 3.5 | 7.8 | 0.00 | 0.00 | 0.00 | 76 | 1014.1 |
| 20260507013004 | 49 | 112 | 4.3 | 7.8 | 0.00 | 0.00 | 0.00 | 75 | 1014.2 |
| 20260507012504 | 49 | 87 | 3.5 | 6.1 | 0.00 | 0.00 | 0.00 | 75 | 1014.2 |
| 20260507012004 | 49 | 98 | 2.6 | 6.1 | 0.00 | 0.00 | 0.00 | 75 | 1014.2 |
| 20260507011504 | 49 | 94 | 4.3 | 6.1 | 0.00 | 0.00 | 0.00 | 75 | 1014.3 |
| 20260507011003 | 49 | 95 | 3.5 | 6.1 | 0.00 | 0.00 | 0.00 | 75 | 1014.3 |
| 20260507010504 | 49 | 103 | 1.7 | 7.0 | 0.00 | 0.00 | 0.00 | 74 | 1014.3 |
| 20260507010004 | 49 | 100 | 4.3 | 7.0 | 0.00 | 0.00 | 0.00 | 74 | 1014.3 |
| 20260507005504 | 49 | 109 | 2.6 | 6.1 | 0.00 | 0.00 | 0.00 | 74 | 1014.3 |
| 20260507004504 | 49 | 119 | 1.7 | 5.2 | 0.00 | 0.00 | 0.00 | 73 | 1014.2 |
| 20260507003503 | 50 | 86 | 2.6 | 7.0 | 0.00 | 0.00 | 0.00 | 73 | 1014.2 |
| 20260507003004 | 50 | 119 | 4.3 | 7.0 | 0.00 | 0.00 | 0.00 | 72 | 1014.2 |
| 20260507002504 | 50 | 99 | 2.6 | 7.0 | 0.00 | 0.00 | 0.00 | 72 | 1014.3 |
| 20260507002004 | 50 | 90 | 4.3 | 7.0 | 0.00 | 0.00 | 0.00 | 72 | 1014.2 |
| 20260507001504 | 50 | 93 | 2.6 | 7.0 | 0.00 | 0.00 | 0.00 | 71 | 1014.3 |
| 20260507001004 | 50 | 89 | 4.3 | 7.8 | 0.00 | 0.00 | 0.00 | 71 | 1014.3 |
| 20260507000503 | 50 | 102 | 4.3 | 7.0 | 0.00 | 0.00 | 0.00 | 71 | 1014.3 |
| 20260507000004 | 50 | 98 | 4.3 | 7.0 | 0.00 | 0.00 | 0.00 | 70 | 1014.3 |
| 20260506235503 | 50 | 104 | 2.6 | 7.0 | 0.00 | 0.00 | 0.00 | 70 | 1014.3 |
| 20260506235004 | 50 | 94 | 1.7 | 7.0 | 0.00 | 0.00 | 0.00 | 70 | 1014.3 |
| 20260506234503 | 50 | 88 | 4.3 | 7.8 | 0.00 | 0.00 | 0.00 | 69 | 1014.3 |
| 20260506234003 | 50 | 104 | 2.6 | 7.0 | 0.00 | 0.00 | 0.00 | 69 | 1014.2 |
| 20260506233504 | 50 | 103 | 3.5 | 7.0 | 0.00 | 0.00 | 0.00 | 69 | 1014.2 |
| 20260506233003 | 50 | 113 | 2.6 | 5.2 | 0.00 | 0.00 | 0.00 | 68 | 1014.2 |
| 20260506231504 | 51 | 99 | 2.6 | 6.1 | 0.00 | 0.00 | 0.00 | 67 | 1014.2 |
| 20260506231003 | 50 | 99 | 2.6 | 6.1 | 0.00 | 0.00 | 0.00 | 67 | 1014.2 |
| 20260506230503 | 50 | 106 | 2.6 | 6.1 | 0.00 | 0.00 | 0.00 | 67 | 1014.1 |
| 20260506230004 | 50 | 103 | 2.6 | 6.1 | 0.00 | 0.00 | 0.00 | 67 | 1014.2 |
| 20260506225504 | 50 | 96 | 1.7 | 7.0 | 0.00 | 0.00 | 0.00 | 67 | 1014.2 |
| 20260506225004 | 50 | 111 | 1.7 | 2.6 | 0.00 | 0.00 | 0.00 | 67 | 1014.2 |
| 20260506224503 | 50 | 111 | 1.7 | 5.2 | 0.00 | 0.00 | 0.00 | 67 | 1014.2 |
| 20260506224004 | 50 | 108 | 1.7 | 5.2 | 0.00 | 0.00 | 0.00 | 68 | 1014.1 |
| 20260506223504 | 50 | 97 | 0.9 | 2.6 | 0.00 | 0.00 | 0.00 | 68 | 1014.1 |
| 20260506223003 | 50 | 97 | 0.9 | 2.6 | 0.00 | 0.00 | 0.00 | 68 | 1014.1 |
| 20260506222503 | 50 | 97 | 0.9 | 2.6 | 0.00 | 0.00 | 0.00 | 67 | 1014.0 |
| 20260506222004 | 50 | 97 | 0.9 | 2.6 | 0.00 | 0.00 | 0.00 | 68 | 1014.0 |
| 20260506221504 | 51 | 97 | 0.9 | 2.6 | 0.00 | 0.00 | 0.00 | 67 | 1014.0 |
| 20260506221004 | 51 | 120 | 1.7 | 2.6 | 0.00 | 0.00 | 0.00 | 67 | 1014.0 |
| 20260506220503 | 51 | 134 | 0.9 | 2.6 | 0.00 | 0.00 | 0.00 | 67 | 1013.9 |
| 20260506220004 | 51 | 134 | 1.7 | 2.6 | 0.00 | 0.00 | 0.00 | 66 | 1013.9 |
| 20260506215504 | 51 | 135 | 1.7 | 2.6 | 0.00 | 0.00 | 0.00 | 66 | 1013.9 |
| 20260506215004 | 51 | 135 | 0.9 | 1.7 | 0.00 | 0.00 | 0.00 | 67 | 1013.9 |
| 20260506214504 | 51 | 135 | 0.9 | 1.7 | 0.00 | 0.00 | 0.00 | 67 | 1013.9 |
| 20260506214004 | 51 | 135 | 0.9 | 2.6 | 0.00 | 0.00 | 0.00 | 66 | 1013.9 |
| 20260506213503 | 51 | 135 | 1.7 | 2.6 | 0.00 | 0.00 | 0.00 | 66 | 1013.9 |
| 20260506213003 | 51 | 135 | 1.7 | 2.6 | 0.00 | 0.00 | 0.00 | 66 | 1013.9 |
| 20260506212503 | 52 | 135 | 1.7 | 2.6 | 0.00 | 0.00 | 0.00 | 65 | 1013.8 |
| 20260506211003 | 52 | 135 | 0.9 | 2.6 | 0.00 | 0.00 | 0.00 | 65 | 1013.8 |
| 20260506210503 | 52 | 135 | 0.9 | 2.6 | 0.00 | 0.00 | 0.00 | 65 | 1013.7 |
| 20260506210004 | 52 | 138 | 1.7 | 2.6 | 0.00 | 0.00 | 0.00 | 64 | 1013.7 |
| 20260506205504 | 52 | 138 | 0.0 | 0.0 | 0.00 | 0.00 | 0.00 | 64 | 1013.7 |
| 20260506205004 | 53 | 138 | 1.7 | 1.7 | 0.00 | 0.00 | 0.00 | 63 | 1013.7 |
| 20260506204503 | 53 | 138 | 1.7 | 2.6 | 0.00 | 0.00 | 0.00 | 62 | 1013.7 |
| 20260506203505 | 53 | 138 | 1.7 | 2.6 | 0.00 | 0.00 | 0.00 | 63 | 1013.7 |